TimeCST,TemperatureF,Dew PointF,Humidity,Sea Level PressureIn,VisibilityMPH,Wind Direction,Wind SpeedMPH,Gust SpeedMPH,PrecipitationIn,Events,Conditions,WindDirDegrees,DateUTC
12:53 AM,30.9,30.9,100,30.22,10.0,Calm,Calm,-,N/A,,Clear,0,2012-11-08 06:53:00
1:53 AM,32.0,30.0,92,30.22,10.0,Calm,Calm,-,N/A,,Clear,0,2012-11-08 07:53:00
2:53 AM,30.0,28.0,92,30.22,9.0,Calm,Calm,-,N/A,,Clear,0,2012-11-08 08:53:00
3:53 AM,30.9,30.0,96,30.23,10.0,Calm,Calm,-,N/A,,Clear,0,2012-11-08 09:53:00
4:53 AM,28.9,27.0,92,30.26,9.0,Calm,Calm,-,N/A,,Clear,0,2012-11-08 10:53:00
5:53 AM,28.0,27.0,96,30.27,9.0,Calm,Calm,-,N/A,,Clear,0,2012-11-08 11:53:00
6:14 AM,28.4,28.4,100,30.25,1.8,West,3.5,-,N/A,,Clear,270,2012-11-08 12:14:00
6:39 AM,30.2,30.2,100,30.25,2.0,Calm,Calm,-,N/A,,Clear,0,2012-11-08 12:39:00
6:46 AM,30.2,30.2,100,30.25,10.0,NNE,4.6,-,N/A,,Clear,30,2012-11-08 12:46:00
6:53 AM,33.1,32.0,96,30.28,10.0,Calm,Calm,-,N/A,,Clear,0,2012-11-08 12:53:00
7:53 AM,44.1,39.9,85,30.30,10.0,Calm,Calm,-,N/A,,Clear,0,2012-11-08 13:53:00
8:53 AM,48.9,39.9,71,30.33,10.0,SE,4.6,-,N/A,,Clear,130,2012-11-08 14:53:00
9:53 AM,53.1,41.0,64,30.33,10.0,Calm,Calm,-,N/A,,Clear,0,2012-11-08 15:53:00
10:53 AM,55.9,39.0,53,30.31,10.0,Variable,3.5,-,N/A,,Clear,0,2012-11-08 16:53:00
11:53 AM,59.0,37.9,46,30.27,10.0,Calm,Calm,-,N/A,,Clear,0,2012-11-08 17:53:00
12:53 PM,61.0,36.0,39,30.24,10.0,Calm,Calm,-,N/A,,Clear,0,2012-11-08 18:53:00
1:53 PM,64.0,37.0,37,30.22,10.0,East,4.6,-,N/A,,Clear,90,2012-11-08 19:53:00
2:50 PM,48.2,33.8,58,30.16,10.0,Calm,Calm,-,N/A,,Clear,0,2012-11-08 20:50:00
2:53 PM,64.0,37.0,37,30.21,10.0,Calm,Calm,-,N/A,,Clear,0,2012-11-08 20:53:00
3:53 PM,64.0,37.9,38,30.20,10.0,ESE,4.6,-,N/A,,Clear,110,2012-11-08 21:53:00
4:53 PM,59.0,39.9,49,30.20,10.0,Calm,Calm,-,N/A,,Clear,0,2012-11-08 22:53:00
5:53 PM,46.0,39.9,79,30.21,10.0,Calm,Calm,-,N/A,,Clear,0,2012-11-08 23:53:00
6:53 PM,41.0,37.9,89,30.21,10.0,Calm,Calm,-,N/A,,Clear,0,2012-11-09 00:53:00
7:53 PM,39.0,37.0,93,30.22,10.0,Calm,Calm,-,N/A,,Clear,0,2012-11-09 01:53:00
8:53 PM,37.9,37.0,97,30.22,10.0,Calm,Calm,-,N/A,,Clear,0,2012-11-09 02:53:00
9:53 PM,41.0,39.0,93,30.21,10.0,Calm,Calm,-,N/A,,Clear,0,2012-11-09 03:53:00
10:53 PM,37.0,36.0,96,30.21,10.0,SSE,3.5,-,N/A,,Clear,160,2012-11-09 04:53:00
11:53 PM,37.9,36.0,93,30.21,10.0,SSE,5.8,-,N/A,,Clear,160,2012-11-09 05:53:00